Location: Rumah Dana
(3.1167°N, 113.0167°E)
Time: 14:37:25
(UTC+00:00)

Ariane H10 - Pass Details

Date: 03 August 2024
Orbit: 410 x 34538 km, 4.3° (Epoch: 09 September)

Event Time Altitude Azimuth Distance (km) Brightness Sun altitude
Rises 11:55:44 0° 262° (W) 2,391 6.7 -18.4°
Reaches altitude 10° 11:57:33 10° 252° (WSW) 1,455 5.2 -18.9°
Maximum altitude 12:00:01 40° 178° (S) 722 2.7 -19.4°
Enters shadow 12:00:12 40° 168° (SSE) 744 2.7 -19.5°
